Location: Arpaise
(41.0333°N, 14.7333°E)
Time: 07:36:55
(UTC+00:00)

Cosmos 2150 Rocket - Pass Details

Date: 05 July 2020
Orbit: 749 x 808 km, 74.0° (Epoch: 05 August)

Event Time Altitude Azimuth Distance (km) Brightness Sun altitude
Rises 19:15:02 0° 338° (NNW) 3,217 8.4 -6.8°
Reaches altitude 10° 19:17:24 10° 336° (NNW) 2,294 7.6 -7.2°
Maximum altitude 19:22:34 69° 254° (WSW) 818 4.3 -7.9°
Drops below altitude 10° 19:27:46 10° 171° (S) 2,313 6.0 -8.7°
Enters shadow 19:29:17 - 170° (S) 2,898 6.5 -8.9°
